Location: Newark
(52.3500°N, 175.9667°E)
Time: 21:15:17
(UTC+00:00)

Transit 4A - Pass Details

Date: 27 April 2021
Orbit: 871 x 974 km, 66.8° (Epoch: 16 May)

Event Time Altitude Azimuth Distance (km) Brightness Sun altitude
Rises 14:06:05 0° 291° (WNW) 3,576 10.9 -19.3°
Reaches altitude 10° 14:09:21 10° 307° (NW) 2,614 10.3 -19.1°
Maximum altitude 14:13:46 21° 354° (N) 1,943 10.2 -18.7°
Drops below altitude 10° 14:18:08 10° 42° (NE) 2,566 11.4 -18.4°
Sets 14:21:18 0° 59° (ENE) 3,491 12.1 -18.1°
